2000 XH47 

Epoch 2000 Dec. 22.0 TT = JDT 2451900.5                 Nakano

M  30.28711              (2000.0)            P               Q

n   0.52213709     Peri.  104.63788     +0.72157629     -0.64060672

a   1.5273774      Node   295.94226     +0.46752237     +0.73059868

e   0.2258477      Incl.   16.97826     +0.51063733     +0.23632309

P   1.89           H   18.6           G   0.15           U   *

Residuals in seconds of arc 

001215 704  0.1-  0.5+    001216 327  1.4-  1.1-    001219 704  0.7-  0.3-  

001215 704  0.0   0.5-    001216 327  0.3+  0.2-    001219 704  0.2+  0.6+  

001215 704  0.2-  0.4+    001216 327  0.3+  1.2+    001219 704  0.4-  0.5+  

001215 704  0.6+  0.5+    001216 327  0.1-  1.2-    001219 704  0.6-  0.0   

001216 704  0.1+  0.0     001217 704  0.1-  0.1-    001219 118  0.2+  0.0   

001216 704  0.3+  0.1-    001217 704  0.1+  0.2-    001219 118  0.2-  0.2+  

001216 704  0.0   0.4+    001217 704  0.3-  0.0     001219 118  0.1-  0.1-  

001216 704  0.8+  0.3-    001217 704  0.0   0.1-    001221 704  1.0+  0.8+  

001216 704  0.2+  0.4+    001217 704  0.0   0.2-    001221 704  1.3+  0.8-  

001216 704  0.8+  0.1+    001217 557  0.4-  0.4-    001221 704  0.2+  0.1+  

001216 704  1.3+  0.1-    001217 557  0.3-  0.6-    001221 704  0.5+  0.0   

001216 704  0.0   0.8-    001217 557  0.1-  0.4-    001221 704  0.9-  0.3+  

001216 704  0.4+  0.5-    001217 587  0.0   0.2-    001221 360  0.0   0.1-  

001216 704  0.7+  0.1-    001217 587  0.8-  0.7+    001221 360  0.0   0.1-  

001216 046  0.0   0.8+    001217 611  0.3-  0.2+    001221 360  0.2-  0.3-  

001216 046  0.3-  0.6+    001217 611  0.2-  0.1-    001223 587  1.2+  0.6-  

001216 046  0.2-  0.3-    001217 611  0.1+  0.1+    001229 360  0.2-  0.3+  

001216 046  0.2+  0.0     001217 611  0.5-  0.8+    001229 360  0.0   0.3-  

001216 046  1.4-  0.2-    001219 704  0.4-  0.6+    001229 360  0.2-  0.1+  

  

NAKANO

         **** Don't distribute anyone except personal use only ****

                (C) Copyright 2000 OAA/ComputingSection

write mail from CFAD0::NAKANO on 2000-12-31 22:21:43(JST).

 



2000 XH47 

Epoch 2000 Dec. 22.0 TT = JDT 2451900.5                 Nakano

M  30.56118              (2000.0)            P               Q

n   0.52559257     Peri.  104.36141     +0.72422243     -0.63861625

a   1.5206756      Node   296.04172     +0.46639314     +0.73151077

e   0.2238575      Incl.   16.82992     +0.50791663     +0.23887505

P   1.88           H   18.5           G   0.15           U   *

  

NAKANO

         **** Don't distribute anyone except personal use only ****

                (C) Copyright 2000 OAA/ComputingSection

write mail from CFAD0::NAKANO on 2000-12-23 02:22:19(JST).

 







–ß‚è‚Ü‚·B